Location: Boiro
(42.6475°N, 8.8834°W)
Time: 18:27:44
(UTC+01:00)

Tiros 1 - Pass Details

Date: 08 December 2021
Orbit: 630 x 663 km, 48.4° (Epoch: 20 January)

Event Time Altitude Azimuth Distance (km) Brightness Sun altitude
Rises 02:08:52 0° 283° (WNW) 2,960 - -68.3°
Reaches altitude 10° 02:12:29 10° 254° (WSW) 2,053 - -68.0°
Maximum altitude 02:14:30 13° 229° (SW) 1,881 - -67.8°
Drops below altitude 10° 02:16:32 10° 203° (SSW) 2,056 - -67.6°
Sets 02:20:10 0° 175° (S) 2,969 - -67.2°
